Printer-friendly version

IAU Minor Planet Center

Minor Planet Center

MPEC 2006-D20 : 2006 DZ

The following Minor Planet Electronic Circular may be linked-to from your own Web pages, but must not otherwise be redistributed electronically.


Read MPEC 2006-D19 Read MPEC 2006-D21


M.P.E.C. 2006-D20                                Issued 2006 Feb. 22, 18:32 UT

     The Minor Planet Electronic Circulars contain information on unusual
         minor planets and routine data on comets.  They are published
   on behalf of Commission 20 of the International Astronomical Union by the
          Minor Planet Center, Smithsonian Astrophysical Observatory,
                          Cambridge, MA 02138, U.S.A.

                  Supported in part by the Brinson Foundation
                  Supported in part by the TABASGO Foundation
             Prepared using the Tamkin Foundation Computer Network

                              MPC@CFA.HARVARD.EDU
          URL http://cfa-www.harvard.edu/iau/mpc.html  ISSN 1523-6714

                                    2006 DZ

Observations:
     K06D00Z* C2006 02 21.35652 11 25 37.88 +18 01 11.3          20.3 V ED020703
     K06D00Z  C2006 02 21.36240 11 25 36.87 +18 00 50.1          19.6 V ED020703
     K06D00Z  C2006 02 21.36830 11 25 35.79 +18 00 27.8          19.8 V ED020703
     K06D00Z  C2006 02 21.37421 11 25 34.68 +18 00 06.5          20.3 V ED020703
     K06D00Z  C2006 02 21.40593 11 25 29.06 +17 58 10.5          19.7 V ED020703
     K06D00Z  C2006 02 21.40904 11 25 28.41 +17 57 59.0          19.7 V ED020703
     K06D00Z  C2006 02 21.41214 11 25 27.91 +17 57 47.5          20.1 V ED020703
     K06D00Z  C2006 02 21.41521 11 25 27.40 +17 57 35.3          20.1 V ED020703
     K06D00Z  C2006 02 22.20799 11 23 14.11 +17 09 00.6          20.6 R ED020H36
     K06D00Z  C2006 02 22.22178 11 23 11.65 +17 08 09.0          19.6 R ED020H36
     K06D00Z  C2006 02 22.23366 11 23 09.62 +17 07 26.4          19.8 R ED020H36
     K06D00Z  C2006 02 22.32660 11 22 53.47 +17 01 48.0          19.6 V ED020703
     K06D00Z  C2006 02 22.33030 11 22 52.93 +17 01 33.0          19.3 V ED020703
     K06D00Z  C2006 02 22.33402 11 22 52.28 +17 01 21.0          19.6 V ED020703
     K06D00Z  C2006 02 22.33772 11 22 51.49 +17 01 08.0          20.9 V ED020703
     K06D00Z  C2006 02 22.35615 11 22 48.23 +16 59 56.9          20.0 V ED020703
     K06D00Z  C2006 02 22.36659 11 22 46.32 +16 59 20.8          19.6 V ED020703
     K06D00Z  C2006 02 22.38314 11 22 43.32 +16 58 19.2          19.6 V ED020703
     K06D00Z  C2006 02 22.39424 11 22 41.36 +16 57 38.0          20.1 V ED020703

Observer details:
703 Catalina Sky Survey.  Observer R. Hill.  Measurers E. C. Beshore,
    E. J. Christensen, G. J. Garradd, A. D. Grauer, R. E. Hill, R. A. Kowalski,
    S. M. Larson, R. H. McNaught.  0.68-m Schmidt + CCD.
H36 Sandlot Observatory, Scranton.  Observer G. Hug.  0.30-m
    Schmidt-Cassegrain + CCD.

Orbital elements:
2006 DZ                                                  Earth MOID = 0.3483 AU
Epoch 2006 Mar. 6.0 TT = JDT 2453800.5                  MPC
M  10.10506              (2000.0)            P               Q
n   0.22572333     Peri.  145.59733     -0.64342242     -0.75599516
a   2.6714789      Node   343.33962     +0.57346799     -0.37189141
e   0.5174768      Incl.   24.81591     +0.50709177     -0.53867254
P   4.37           H   20.8           G   0.15           U   9
Residuals in seconds of arc
060221 703  0.1+  0.2-    060221 703  0.3+  0.6-    060222 703  0.1-  1.4+
060221 703  0.7+  0.2+    060222 H36  0.6-  0.5+    060222 703  0.4+  1.9-
060221 703  0.4+  0.5-    060222 H36  1.1-  0.7-    060222 703  0.3-  0.4+
060221 703  0.4-  0.1-    060222 H36  0.1-  0.2+    060222 703  0.9-  0.2-
060221 703  0.3+  0.4+    060222 703  0.2-  0.6+    060222 703  0.6-  0.4-
060221 703  1.0-  0.4+    060222 703  1.6+  0.8-
060221 703  0.3-  0.3+    060222 703  1.8+  0.8+

Ephemeris:
2006 DZ                  a,e,i = 2.67, 0.52, 25                  q = 1.2891
Date    TT    R. A. (2000) Decl.     Delta      r     Elong.  Phase     V
2006 02 14    11 46.04   +25 15.6    0.366    1.317   150.0    22.0    20.3
2006 02 24    11 18.17   +15 19.2    0.361    1.343   166.5     9.9    19.9
2006 03 06    10 51.76   +05 26.0    0.385    1.376   176.6     2.5    19.7
2006 03 16    10 31.40   -02 44.6    0.437    1.417   161.7    12.8    20.5
2006 03 26    10 18.68   -08 41.4    0.513    1.462   149.4    20.3    21.2
2006 04 05    10 13.20   -12 47.0    0.605    1.513   139.5    25.4    21.8

Kyle E. Smalley              (C) Copyright 2006 MPC           M.P.E.C. 2006-D20

Read MPEC 2006-D19 Read MPEC 2006-D21


Our Web policy. Index to the CBAT/MPC/ICQ pages.


Valid HTML 4.01!